Location: Newark
(46.7000°N, 60.6000°W)
Time: 00:09:22
(UTC+00:00)

Vanguard 1 - Pass Details

Date: 04 November 2020
Orbit: 650 x 3833 km, 34.2° (Epoch: 23 November)

Event Time Altitude Azimuth Distance (km) Brightness Sun altitude
Rises 20:52:33 0° 280° (W) 7,958 15.9 -2.6°
Reaches altitude 10° 20:58:52 10° 273° (W) 6,932 15.8 -3.6°
Maximum altitude 21:17:10 33° 220° (SW) 4,579 14.1 -6.6°
Drops below altitude 10° 21:30:36 10° 164° (SSE) 5,076 13.7 -8.8°
Sets 21:34:24 0° 154° (SSE) 5,669 13.8 -9.4°
